Overview Statistics Trail Chart Weather Telemetry Raw packets
 

This is the latest recevied weather packets stored in our database for station/object N0NB. If no packets are shown the sender has not sent any weather packets the latest 10 day(s).

<< 6 7 8 9 10 11 12 >>
Time Temp. Humidity Pressure Rain* Wind** Luminosity Snow
1788539716 31.11° C 69% 1012.1 hPa 0 mm - 638 W/m² -
1788539116 31.11° C 69% 1012 hPa 0 mm - 621 W/m² -
1788538516 30.56° C 70% 1012 hPa 0 mm - 602 W/m² -
1788537916 30.56° C 72% 1011.9 hPa 0 mm - 583 W/m² -
1788537316 30° C 72% 1011.9 hPa 0 mm - 560 W/m² -
1788536745 29.44° C 72% 1011.8 hPa 0 mm - 539 W/m² -
1788536116 29.44° C 74% 1011.8 hPa 0 mm - 517 W/m² -
1788535516 28.89° C 73% 1011.7 hPa 0 mm - 491 W/m² -
1788534916 28.89° C 75% 1011.7 hPa 0 mm - 466 W/m² -
1788534316 28.33° C 75% 1011.6 hPa 0 mm - 442 W/m² -
1788533716 28.33° C 75% 1011.7 hPa 0 mm - 415 W/m² -
1788533116 27.78° C 77% 1011.7 hPa 0 mm - 387 W/m² -
1788532516 27.78° C 77% 1011.6 hPa 0 mm - 360 W/m² -
1788531916 27.22° C 78% 1011.7 hPa 0 mm - 331 W/m² -
1788531316 26.67° C 79% 1011.7 hPa 0 mm - 301 W/m² -
1788530716 26.67° C 80% 1011.8 hPa 0 mm - 270 W/m² -
1788530116 26.11° C 80% 1011.8 hPa 0 mm - 244 W/m² -
1788529516 25.56° C 81% 1011.8 hPa 0 mm - 215 W/m² -
1788528916 25.56° C 82% 1011.8 hPa 0 mm - 184 W/m² -
1788528316 25° C 82% 1011.6 hPa 0 mm - 147 W/m² -
1788527716 25° C 83% 1011.7 hPa 0 mm - 114 W/m² -
1788527116 24.44° C 84% 1011.4 hPa 0 mm - 88 W/m² -
1788526516 23.89° C 86% 1011.1 hPa 0 mm - 66 W/m² -
1788525916 23.33° C 87% 1011.1 hPa 0 mm - 45 W/m² -
1788525316 23.33° C 87% 1011.1 hPa 0 mm - 28 W/m² -

* Rain latest hour (hover to see other rain measurements)
** Current wind speed in m/s (hover to see current wind gust speed)